Location: Ajisawe
(8.4333°N, 4.3833°E)
Time: 21:11:45
(UTC+00:00)

Tiros 1 despin weight - Visible Passes

Search period start: 17 April 2021 00:00
Search period end: 27 April 2021 00:00
Orbit: 593 x 641 km, 48.2° (Epoch: 17 April)

Date Brightness Start Highest point End Pass type
(mag) Time Alt. Az. Time Alt. Az. Time Alt. Az.
17 Apr ? 02:57:21 15° ENE 02:57:21 15° ENE 02:58:15 10° ENE visible
17 Apr ? 04:34:25 16° WNW 04:35:25 17° NW 04:38:24 10° N visible
18 Apr ? 03:13:27 19° NNE 03:13:27 19° NNE 03:14:48 10° NE visible
19 Apr ? 03:29:27 15° N 03:29:27 15° N 03:30:29 10° NNE visible
